Regional Weather Roundup
Issued by NWS New Orleans/Baton Rouge, LA

Home | Current Version | Previous Version | Text Only | Print | Product List | Glossary On
Versions: 1 2 3 4 5 6 7 8 9 10 11 12 13 14 15 16 17 18 19 20 21 22 23 24 25 26 27 28 29 30 31 32 33 34 35 36 37 38 39 40 41 42 43 44 45 46 47 48 49 50
134
ASUS44 KLIX 271810
RWRLIX
NEW ORLEANS REGIONAL WEATHER ROUNDUP
NATIONAL WEATHER SERVICE NEW ORLEANS LA
100 PM CDT WED AUG 27 2014

NOTE: "FAIR" INDICATES FEW OR NO CLOUDS BELOW 12,000 FEET WITH NO
      SIGNIFICANT WEATHER AND/OR OBSTRUCTIONS TO VISIBILITY.
      SKY/WX - SKY CONDITION AND SIGNIFICANT WEATHER.
      TMP - AIR TEMPERATURE.     DP    - DEWPOINT TEMPERATURE.
      RH  - RELATIVE HUMIDITY.   PRES  - PRESSURE.
      HI  - HEAT INDEX.          WCI   - WIND CHILL INDEX.

*  THESE STATIONS ARE NOT NWS OR FAA STATIONS AND ARE NOT UNDER
   NWS QUALITY CONTROL.

LAZ038-040-048-061>063-065>067-069-271900-
SOUTHEAST LOUISIANA

CITY           SKY/WX    TMP DP  RH WIND       PRES   REMARKS
N.O. AUDUBON   NOT AVBL
N.O. INTL ARPT PTSUNNY   89  72  56 NE9       30.01F HX  96
6HR MIN TEMP:  82; 6HR MAX TEMP:  91;

N.O. LAKEFRONT   N/A     88  74  63 E14       30.02F HX  96
6HR MIN TEMP:  81; 6HR MAX TEMP:  89;

N.O. DOWNTOWN* MOCLDY    88  72  58 E6        30.02F
6HR MIN TEMP:  81; 6HR MAX TEMP:  90;

SLIDELL          N/A     89  71  55 E7        30.01F HX  95
6HR MIN TEMP:  74; 6HR MAX TEMP:  92;

BATON ROUGE    PTSUNNY   89  72  56 E9        30.02F HX  96
6HR MIN TEMP:  72; 6HR MAX TEMP:  91;

BOOTHVILLE       N/A     86  75  69 NE15G21   30.02S HX  95
6HR MIN TEMP:  82; 6HR MAX TEMP:  89;

BELLE CHASSE   PTSUNNY   84  70  62 NE16G23   30.02S
6HR MIN TEMP:  80; 6HR MAX TEMP:  90;

BOGALUSA*        N/A     94  65  38 SE6       30.04F HX  96
6HR MIN TEMP:  71; 6HR MAX TEMP:  94;

GALLIANO*      NOT AVBL
NEW ROADS*     MOCLDY    89  73  59 E8        30.03F HX  96
6HR MIN TEMP:  72; 6HR MAX TEMP:  89;

GONZALES*        N/A     90  73  57 E3        30.01F HX  97
6HR MIN TEMP:  74; 6HR MAX TEMP:  90;

HAMMOND*       PTSUNNY   91  64  40 E5        30.03F
HOUMA*         MOSUNNY   91  70  49 E8        30.00F HX  97
PORT FOURCHON* PTCLDY    88  75  66 SE10      30.01F HX  97

$$

MSZ070-080>082-271900-
SOUTHERN MISSISSIPPI

CITY           SKY/WX    TMP DP  RH WIND       PRES   REMARKS
MCCOMB           N/A     88  67  49 VRB3      30.04F
6HR MIN TEMP:  71; 6HR MAX TEMP:  90;

GULFPORT         N/A     90  71  53 SE15      30.02F HX  96
6HR MIN TEMP:  76; 6HR MAX TEMP:  91;

BILOXI           N/A     92  72  51 SE15      30.02F HX  99
6HR MIN TEMP:  76; 6HR MAX TEMP:  93;

PASCAGOULA     CLOUDY    87  71  58 SE8       30.03F
6HR MIN TEMP:  72; 6HR MAX TEMP:  91;


$$

COASTAL OBSERVATIONS
LAKE AND NEARSHORE STATIONS

STATION/POSITION TIME  TEMP    WIND        PRES    WAVE
                       AIR SEA DIR/SP/G            HT/PER
                 (UTC) (F)     (DEG/KT/KT) (MB)    (FT/S)
PASCAGOULA       1800   89     110/ 11/ 17 1016.4
WAVELAND YACHT   1800   85     140/ 12/ 16 1016.3
GRAND ISLE       1800   85 84  110/  5/ 10 1016.8
SOUTHWEST PASS   1800   92 88   90/  6/  7 1016.2
NEW CANAL        1800   87 84   80/  7/ 13 1016.7
SHELL BEACH      1800   85 81   70/ 15/ 18 1016.1

OFFSHORE STATIONS

STATION/POSITION TIME  TEMP    WIND        PRES    WAVE
                       AIR SEA DIR/SP/G            HT/PER
                 (UTC) (F)     (DEG/KT/KT) (MB)    (FT/S)
64 S DAUPHIN ISL 1728   85 86   80/ 14/ 16 1016.5

$$




USA.gov is the U.S. government's official web portal to all federal, state and local government web resources and services.